Regional Weather Roundup
Issued by NWS Kansas City/Pleasant Hill, MO

Home | Current Version | Previous Version | Text Only | Print | Product List | Glossary On
Versions: 1 2 3 4 5 6 7 8 9 10 11 12 13 14 15 16 17 18 19 20 21 22 23 24 25 26 27 28 29 30 31 32 33 34 35 36 37 38 39 40 41 42 43 44 45 46 47 48 49 50
000
ASUS43 KEAX 291710
RWREAX

WEATHER ROUNDUP FOR EASTERN KANSAS AND NORTHWEST MISSOURI
NATIONAL WEATHER SERVICE KANSAS CITY/PLEASANT HILL MO
1200 PM CDT WED JUL 29 2015

KSZ040-057-103>105-MOZ028-029-037-043-291800-
...KANSAS CITY METROPOLITAN AREA...

CITY           SKY/WX    TMP DP  RH WIND       PRES   REMARKS
K.C. INTL      PTSUNNY   79  73  82 NW7       30.16R
K.C. DOWNTOWN  CLOUDY    81  72  74 VRB7      30.14R
LEES SUMMIT    PTSUNNY   77  70  79 N8        30.15R
OLATHE - IXD   PTSUNNY   78  70  76 N10       30.18R
OLATHE - OJC   PTSUNNY   80  70  71 N9        30.16R
LAWRENCE       MOSUNNY   81  69  67 NW6       30.16R

$$

MOZ001>008-011>017-020>025-030>033-038>040-044>046-053-054-291800-
...NORTHERN AND CENTRAL MISSOURI...

CITY           SKY/WX    TMP DP  RH WIND       PRES   REMARKS
ST. JOSEPH     PTSUNNY   82  70  66 N9        30.15R
MOSBY          CLOUDY    77  72  83 NW6       30.14R
WARRENSBURG    MOSUNNY   81  70  69 NE5       30.11F
WHITEMAN AFB   MOSUNNY   84  71  63 N12       30.10F
CLINTON          N/A     82  72  69 NE10      30.12S
SEDALIA        MOSUNNY   85  71  63 NE13      30.14S HX  90
WARSAW         NOT AVBL
CHILLICOTHE      N/A     82  69  64 VRB6      30.14S
KIRKSVILLE     CLOUDY    80  65  59 N8        30.13S

$$

MOZ041-047>049-056>058-063>065-088>090-097-291800-
...EASTERN AND SOUTHERN MISSOURI...

CITY           SKY/WX    TMP DP  RH WIND       PRES   REMARKS
ST. LOUIS INTL PTSUNNY   84  71  65 N12       30.06R
SPIRIT OF STL  CLOUDY    84  73  69 NW5       30.05S HX  90
COLUMBIA       MOSUNNY   82  69  64 N10       30.12R
JEFFERSON CITY MOSUNNY   83  68  60 N9        30.09S
ROLLA          PTSUNNY   81  71  71 N13G22    30.09R
OSAGE BEACH    PTSUNNY   81  70  69 NE10      30.11S
SPRINGFIELD    SUNNY     89  71  55 VRB3      30.10S HX  95
BRANSON        SUNNY     90  72  55 SW8       30.13S HX  96
JOPLIN         SUNNY     92  70  48 E6        30.09F HX  97
WEST PLAINS    SUNNY     91  72  53 NW7       30.10F HX  98

$$

IAZ060-094-KSZ022-034>040-054-083-096-NEZ052-066-093-291800-
...KANSAS...SOUTHEAST NEBRASKA AND IOWA...

CITY           SKY/WX    TMP DP  RH WIND       PRES   REMARKS
TOPEKA         PTSUNNY   81  70  69 CALM      30.17R
MANHATTAN      CLOUDY    77  70  79 N8        30.15F
EMPORIA        CLOUDY    75  68  78 N7        30.14F
CHANUTE          N/A    N/A N/A N/A MISG      30.09S
WICHITA        PTSUNNY   83  70  64 NE9       30.12F
OMAHA          MOSUNNY   84  54  35 NW10      30.17F
LINCOLN        SUNNY     84  49  29 VRB7      30.20F
FALLS CITY     MOSUNNY   82  67  60 N6        30.16R
LAMONI           N/A    N/A N/A N/A MISG      30.14S
DES MOINES     PTSUNNY   83  49  30 NW18G24   30.11S

$$




USA.gov is the U.S. government's official web portal to all federal, state and local government web resources and services.